San Jose, Costa Rica

1:41 AM CST on February 13, 2016 (GMT -0600)
Juan Santamaria International | | Change Station
CLOSE
Current Station
Airport
Location: San Jose,
Elevation: 3018 ft
Nearby Weather Stations

Elev 3018 ft 9.99 °N, 84.21 °W | Updated 41 minutes ago

Clear
Clear
70 °F
Feels Like 70 °F
N
18
Wind Variable Wind from East
Gusts 34 mph

Today
High -- | Low -- °F
--% Chance of Precip.
Yesterday
High -- | Low -- °F
Precip. -- in
Pressure 29.98 in
Visibility -9999.0 miles
Clouds
Dew Point 57 °F
Humidity 64%
Rainfall 0.00 in
Snow Depth Not available.
5:57 AM 5:44 PM
Waxing Crescent, 28% visible
METAR MROC 130700Z 10016G30KT CAVOK 21/14 A2998 NOSIG
Pressure 29.98 in
Visibility -9999.0 miles
Clouds
Dew Point 57 °F
Humidity 64%
Rainfall 0.00 in
Snow Depth Not available.
5:57 AM 5:44 PM
Waxing Crescent, 28% visible
METAR MROC 130700Z 10016G30KT CAVOK 21/14 A2998 NOSIG

10-Day Weather Forecast

No radar image for this location.
×

Almanac

Astronomy

Feb. 13, 2016 Rise Set
Actual Time
Civil Twilight
Nautical Twilight
Astronomical Twilight
Moon
Length of Visible Light
Length of Day
Tomorrow will be .
, % of the Moon is Illuminated

Today's Extremes

Country Highs Country Lows

Community

WunderPhotos

Upload Photos

1,892,526 photos uploaded!

WunderBlog® & News

Nearby

Air Quality

  Air Quality AQ Index Pollutant
Not available.

Snow Depth

Station Depth Elevation

Earthquake Activity

City Distance Mag. Time & Date
Minimum magnitude displayed is 2.5.

Coastal Water Temperatures

Place Temperature

Stations

Nearby Weather Stations

Station Location Temp. Windchill Dew Point Humidity Wind Precip. Elev Updated Type